Hourly Weather Roundup
Issued by NWS Central Illinois

Home | Current Version | Previous Version | Text Only | Print | Product List | Glossary Off
Versions: 1 2 3 4 5 6 7 8 9 10 11 12 13 14 15 16 17 18 19 20 21 22 23 24 25 26 27 28 29 30 31 32 33 34 35 36 37 38 39 40 41 42 43 44 45 46 47 48 49 50

000
NZUS43 KILX 272210
HWRILX

AREA WEATHER ROUNDUP
NATIONAL WEATHER SERVICE, LINCOLN IL
500 PM CDT WED JUL 27 2016


CITY           SKY/WX    TMP DP  RH WIND       PRES   REMARKS
BLOOMINGTON    PTSUNNY   84  69  60 E7        29.96F HX  88
CHAMPAIGN      CLOUDY    84  71  65 E6        29.95F HX  89
DANVILLE       PTSUNNY   81  72  75 CALM      29.94S HX  85
DECATUR        MOSUNNY   86  72  62 E6        29.94F HX  92
EFFINGHAM      CLOUDY    84  75  74 SE5       29.94F HX  92
FLORA          MOSUNNY   87  76  70 N3        29.93F HX  96
GALESBURG      SUNNY     86  68  55 CALM      29.94F HX  89
JACKSONVILLE   SUNNY     84  74  72 E9        29.93S HX  91
LACON          MOSUNNY   86  67  53 S3        29.93F HX  88
LAWRENCEVILLE  CLOUDY    86  74  67 NE6       29.94S HX  94
LITCHFIELD     NOT AVBL
$$


CITY           SKY/WX    TMP DP  RH WIND       PRES   REMARKS
LINCOLN        MOSUNNY   85  75  70 SE5       29.94S HX  94
MACOMB         MOSUNNY   85  72  63 CALM      29.96S HX  91
MATTOON        PTSUNNY   84  73  69 CALM      29.94F HX  90
MT CARMEL AP   CLOUDY    85  74  71 E6        29.94S HX  92
OLNEY-NOBLE AP CLOUDY    86  77  74 E3        29.93F HX  97
PARIS          CLOUDY    82  75  81 CALM      29.96F HX  88
PEORIA         PTSUNNY   85  70  60 VRB5      29.94S HX  89
PONTIAC        PTSUNNY   86  72  62 S5        29.96S HAZE    HX  92
RANTOUL        NOT AVBL
ROBINSON       CLOUDY    87  73  63 E3        29.94F HX  94
SPRINGFIELD    SUNNY     85  74  69 SE8       29.94S HX  92
TAYLORVILLE    MOSUNNY   82  75  77 MISG      29.94F HX  89
$$

...REGIONAL REPORTS...


CITY           SKY/WX    TMP DP  RH WIND       PRES   REMARKS
CHICAGO O`HARE PTSUNNY   88  62  41 SW9       29.93S HX  88
KANKAKEE       SUNNY     88  66  48 S6        29.95S HX  90
MOLINE         SUNNY     86  68  54 S7        29.92F HX  89
MOUNT STERLING SUNNY     86  75  70 SE3       29.93S HX  94
MOUNT VERNON   MOSUNNY   88  73  62 MISG      29.91F HX  96
PITTSFIELD     PTSUNNY   86  76  71 E3        29.93S HX  96
QUINCY         PTSUNNY   88  73  61 SE7       29.92F HX  95
ROCKFORD       PTSUNNY   86  67  52 S5        29.95F HX  89
$$


CITY           SKY/WX    TMP DP  RH WIND       PRES   REMARKS
BURLINGTON     MOSUNNY   86  70  58 CALM      29.93F HX  90
CEDAR RAPIDS   MOSUNNY   82  72  71 W7        29.94F HX  87
DES MOINES     CLOUDY    84  69  60 NW5       29.94F HX  88
KIRKSVILLE     MOSUNNY   89  66  46 VRB6      29.94S HX  91
OTTUMWA        MOSUNNY   84  67  56 SW5       29.91F HX  86
ST LOUIS       CLOUDY    90  73  57 E8        29.91F HX  98
$$


CITY           SKY/WX    TMP DP  RH WIND       PRES   REMARKS
TERRE HAUTE    MOSUNNY   86  70  58 CALM      29.94F HX  90
EVANSVILLE     PTSUNNY   80  74  81 NE7       29.92S THUNDER HX  85
INDIANAPOLIS   PTSUNNY   87  66  49 S3        29.95F HX  89
LAFAYETTE      CLOUDY    83  69  62 SW6       29.95S HX  86
MADISON        PTSUNNY   82  69  64 E10       29.95F HX  85
MILWAUKEE      PTSUNNY   77  66  68 NE12      29.97S
$$





USA.gov is the U.S. government's official web portal to all federal, state and local government web resources and services.